When you browse on this site, cookies collect data to enhance your experience and personalize the content and advertising you see.
Visit our Privacy Policy to learn more. By continuing to use the site, you agree to this use of cookies and data.
  • In Hungary
  • List of Countries
  • For 7 days
  • Water Temperature
  • Satellite Maps
  • Weather Map
  • News
  • Weather Widgets
  • user-avatar
    Login

    Hourly Weather Islamabad

    Today, 17 November, Saturday

    Time Temperature Precipitation Wind Pressure Humidity
    00:00 +15°C° 0 mm 2 mps 715 mmHg 25%
    01:00 +15°C° 0 mm 2 mps 715 mmHg 25%
    02:00 +14°C° 0 mm 2 mps 714 mmHg 26%
    03:00 +14°C° 0 mm 2 mps 714 mmHg 25%
    04:00 +14°C° 0 mm 2 mps 714 mmHg 25%
    05:00 +13°C° 0 mm 2 mps 714 mmHg 26%
    06:00 +14°C° 0 mm 2 mps 715 mmHg 25%
    07:00 +14°C° 0 mm 2 mps 715 mmHg 24%
    08:00 +15°C° 0 mm 2 mps 715 mmHg 24%
    09:00 +17°C° 0 mm 2 mps 715 mmHg 20%
    10:00 +20°C° 0 mm 2 mps 715 mmHg 17%
    11:00 +23°C° 0 mm 2 mps 716 mmHg 13%
    12:00 +24°C° 0 mm 2 mps 715 mmHg 13%
    13:00 +25°C° 0 mm 2 mps 715 mmHg 13%
    14:00 +26°C° 0 mm 2 mps 714 mmHg 13%
    15:00 +24°C° 0 mm 2 mps 714 mmHg 16%
    16:00 +22°C° 0 mm 1 mps 714 mmHg 19%
    17:00 +21°C° 0 mm 1 mps 713 mmHg 22%
    18:00 +20°C° 0 mm 1 mps 713 mmHg 22%
    19:00 +19°C° 0 mm 1 mps 714 mmHg 22%
    20:00 +19°C° 0 mm 1 mps 714 mmHg 22%
    21:00 +18°C° 0 mm 1 mps 714 mmHg 22%
    22:00 +17°C° 0 mm 2 mps 714 mmHg 22%
    23:00 +17°C° 0 mm 2 mps 714 mmHg 23%

    Tomorrow, 18 November, Sunday

    Time Temperature Precipitation Wind Pressure Humidity
    00:00 +16°C° 0 mm 2 mps 714 mmHg 23%
    01:00 +16°C° 0 mm 2 mps 714 mmHg 23%
    02:00 +15°C° 0 mm 2 mps 714 mmHg 23%
    03:00 +15°C° 0 mm 2 mps 714 mmHg 23%
    04:00 +15°C° 0 mm 2 mps 714 mmHg 23%
    05:00 +14°C° 0 mm 2 mps 714 mmHg 23%
    06:00 +15°C° 0 mm 2 mps 715 mmHg 24%
    07:00 +16°C° 0 mm 2 mps 715 mmHg 24%
    08:00 +16°C° 0 mm 2 mps 716 mmHg 25%
    09:00 +19°C° 0 mm 2 mps 717 mmHg 21%
    10:00 +22°C° 0 mm 1 mps 717 mmHg 18%
    11:00 +24°C° 0 mm 1 mps 717 mmHg 14%
    12:00 +25°C° 0 mm 1 mps 717 mmHg 14%
    13:00 +26°C° 0 mm 1 mps 717 mmHg 14%
    14:00 +26°C° 0 mm 2 mps 716 mmHg 13%
    15:00 +24°C° 0 mm 1 mps 716 mmHg 16%
    16:00 +23°C° 0 mm 1 mps 715 mmHg 19%
    17:00 +21°C° 0 mm 1 mps 715 mmHg 22%
    18:00 +20°C° 0 mm 1 mps 716 mmHg 22%
    19:00 +19°C° 0 mm 1 mps 716 mmHg 22%
    20:00 +18°C° 0 mm 2 mps 716 mmHg 23%
    21:00 +17°C° 0 mm 2 mps 716 mmHg 23%
    22:00 +17°C° 0 mm 2 mps 716 mmHg 24%
    23:00 +16°C° 0 mm 2 mps 717 mmHg 24%

    Day after tomorrow, 19 November, Monday

    Time Temperature Precipitation Wind Pressure Humidity
    00:00 +16°C° 0 mm 2 mps 717 mmHg 25%
    01:00 +16°C° 0 mm 2 mps 717 mmHg 25%
    02:00 +16°C° 0 mm 2 mps 717 mmHg 25%
    03:00 +15°C° 0 mm 2 mps 717 mmHg 25%
    04:00 +15°C° 0 mm 2 mps 717 mmHg 25%
    05:00 +15°C° 0 mm 2 mps 716 mmHg 25%
    06:00 +15°C° 0 mm 2 mps 717 mmHg 26%
    07:00 +16°C° 0 mm 2 mps 717 mmHg 26%
    08:00 +17°C° 0 mm 2 mps 718 mmHg 27%
    09:00 +19°C° 0 mm 2 mps 719 mmHg 24%
    10:00 +21°C° 0 mm 2 mps 719 mmHg 20%
    11:00 +25°C° 0 mm 2 mps 720 mmHg 17%
    12:00 +25°C° 0 mm 2 mps 720 mmHg 17%
    13:00 +26°C° 0 mm 2 mps 719 mmHg 16%
    14:00 +26°C° 0 mm 2 mps 719 mmHg 16%
    15:00 +25°C° 0 mm 2 mps 718 mmHg 19%
    16:00 +23°C° 0 mm 2 mps 718 mmHg 21%
    17:00 +21°C° 0 mm 1 mps 718 mmHg 24%
    18:00 +20°C° 0 mm 2 mps 718 mmHg 25%
    19:00 +19°C° 0 mm 2 mps 718 mmHg 26%
    20:00 +18°C° 0 mm 2 mps 718 mmHg 26%
    21:00 +18°C° 0 mm 2 mps 718 mmHg 27%
    22:00 +17°C° 0 mm 2 mps 718 mmHg 27%
    23:00 +17°C° 0 mm 2 mps 718 mmHg 28%

    20 November, Tuesday

    Time Temperature Precipitation Wind Pressure Humidity
    00:00 +16°C° 0 mm 2 mps 718 mmHg 28%
    01:00 +16°C° 0 mm 2 mps 718 mmHg 29%
    02:00 +16°C° 0 mm 3 mps 718 mmHg 29%
    03:00 +14°C° 0 mm 3 mps 718 mmHg 29%
    04:00 +14°C° 0 mm 3 mps 718 mmHg 29%
    05:00 +14°C° 0 mm 3 mps 718 mmHg 30%
    06:00 +14°C° 0 mm 3 mps 718 mmHg 30%
    07:00 +16°C° 0 mm 3 mps 719 mmHg 30%
    08:00 +16°C° 0 mm 3 mps 719 mmHg 30%
    09:00 +19°C° 0 mm 2 mps 720 mmHg 27%
    10:00 +21°C° 0 mm 2 mps 720 mmHg 23%
    11:00 +24°C° 0 mm 2 mps 721 mmHg 19%
    12:00 +25°C° 0 mm 2 mps 720 mmHg 18%
    13:00 +25°C° 0 mm 3 mps 720 mmHg 18%
    14:00 +26°C° 0 mm 3 mps 719 mmHg 17%
    15:00 +24°C° 0 mm 2 mps 718 mmHg 20%
    16:00 +23°C° 0 mm 2 mps 718 mmHg 23%
    17:00 +20°C° 0 mm 2 mps 717 mmHg 26%
    18:00 +19°C° 0 mm 2 mps 717 mmHg 26%
    19:00 +19°C° 0 mm 2 mps 718 mmHg 26%
    20:00 +18°C° 0 mm 2 mps 718 mmHg 26%
    21:00 +17°C° 0 mm 2 mps 718 mmHg 26%
    22:00 +17°C° 0 mm 2 mps 718 mmHg 26%
    23:00 +16°C° 0 mm 2 mps 718 mmHg 27%

    21 November, Wednesday

    Time Temperature Precipitation Wind Pressure Humidity
    00:00 +16°C° 0 mm 2 mps 718 mmHg 27%
    01:00 +16°C° 0 mm 2 mps 717 mmHg 27%
    02:00 +15°C° 0 mm 2 mps 717 mmHg 27%
    03:00 +15°C° 0 mm 2 mps 717 mmHg 27%
    04:00 +15°C° 0 mm 2 mps 717 mmHg 27%
    05:00 +15°C° 0 mm 2 mps 717 mmHg 27%
    06:00 +15°C° 0 mm 2 mps 717 mmHg 27%
    07:00 +16°C° 0 mm 2 mps 718 mmHg 27%
    08:00 +16°C° 0 mm 2 mps 718 mmHg 27%
    09:00 +19°C° 0 mm 2 mps 719 mmHg 24%
    10:00 +21°C° 0 mm 2 mps 719 mmHg 20%
    11:00 +24°C° 0 mm 2 mps 719 mmHg 17%
    12:00 +25°C° 0 mm 2 mps 719 mmHg 16%
    13:00 +25°C° 0 mm 2 mps 718 mmHg 16%
    14:00 +26°C° 0 mm 3 mps 717 mmHg 15%
    15:00 +24°C° 0 mm 2 mps 717 mmHg 18%
    16:00 +23°C° 0 mm 2 mps 716 mmHg 21%
    17:00 +20°C° 0 mm 2 mps 716 mmHg 23%
    18:00 +19°C° 0 mm 2 mps 716 mmHg 24%
    19:00 +18°C° 0 mm 2 mps 717 mmHg 24%
    20:00 +17°C° 0 mm 2 mps 717 mmHg 24%
    21:00 +17°C° 0 mm 2 mps 717 mmHg 24%
    22:00 +17°C° 0 mm 2 mps 717 mmHg 24%
    23:00 +16°C° 0 mm 2 mps 717 mmHg 24%

    22 November, Thursday

    Time Temperature Precipitation Wind Pressure Humidity
    00:00 +16°C° 0 mm 2 mps 717 mmHg 24%
    01:00 +16°C° 0 mm 2 mps 717 mmHg 24%
    02:00 +15°C° 0 mm 2 mps 717 mmHg 23%
    03:00 +15°C° 0 mm 2 mps 717 mmHg 23%
    04:00 +15°C° 0 mm 2 mps 717 mmHg 23%
    05:00 +15°C° 0 mm 2 mps 717 mmHg 23%
    06:00 +16°C° 0 mm 2 mps 717 mmHg 23%
    07:00 +16°C° 0 mm 2 mps 718 mmHg 23%
    08:00 +17°C° 0 mm 2 mps 719 mmHg 23%
    09:00 +19°C° 0 mm 2 mps 719 mmHg 22%
    10:00 +20°C° 0 mm 2 mps 720 mmHg 21%
    11:00 +22°C° 0 mm 1 mps 720 mmHg 20%
    12:00 +21°C° 0.1 mm 2 mps 720 mmHg 23%
    13:00 +21°C° 0.1 mm 3 mps 720 mmHg 25%
    14:00 +21°C° 0.1 mm 3 mps 719 mmHg 28%
    15:00 +20°C° 0 mm 3 mps 719 mmHg 30%
    16:00 +19°C° 0 mm 3 mps 719 mmHg 33%
    17:00 +19°C° 0 mm 3 mps 718 mmHg 36%
    18:00 +18°C° 0.1 mm 3 mps 719 mmHg 38%
    19:00 +18°C° 0.1 mm 3 mps 719 mmHg 41%
    20:00 +17°C° 0.1 mm 3 mps 719 mmHg 43%
    21:00 +17°C° 0.2 mm 3 mps 720 mmHg 47%
    22:00 +16°C° 0.2 mm 2 mps 720 mmHg 51%
    23:00 +16°C° 0.2 mm 2 mps 720 mmHg 54%
    Show more